Location: Grange Rosano
(44.4500°N, 6.9667°E)
Time: 19:28:04
(UTC+00:00)

Cosmos 2237 Rocket - Pass Details

Date: 26 May 2022
Orbit: 834 x 851 km, 71.0° (Epoch: 01 July)

Event Time Altitude Azimuth Distance (km) Brightness Sun altitude
Exits shadow 01:11:48 31° 245° (WSW) 1,443 3.0 -20.4°
Maximum altitude 01:14:09 49° 301° (WNW) 1,083 2.7 -20.2°
Drops below altitude 10° 01:19:41 10° 16° (NNE) 2,485 5.8 -19.8°
Sets 01:22:15 0° 22° (NNE) 3,425 7.0 -19.5°
